Location: Unspecified
(0.0000°N, 0.0000°E)
Time: 15:58:50
(UTC+00:00)

AO-7 - Pass Details

Date: 28 September 2021
Orbit: 1439 x 1459 km, 101.9° (Epoch: 25 October)

Event Time Altitude Azimuth Distance (km) Brightness Sun altitude
Rises 05:06:19 0° 346° (NNW) 4,520 ? -11.1°
Reaches altitude 10° 05:10:02 10° 330° (NNW) 3,543 ? -10.2°
Maximum altitude 05:15:33 20° 287° (WNW) 2,849 ? -8.8°
Drops below altitude 10° 05:21:05 10° 244° (WSW) 3,549 ? -7.4°
Sets 05:24:52 0° 228° (SW) 4,530 ? -6.4°
